#timestamp,LO_Frequency,Hit,StdDev 
1645153215.6,286046999.9,N
1645153235.4,286047004.3,N
1645153255.3,286047007.2,N
1645153275.1,286047008.0,N
1645153276.0,286047008.0,N
1645153295.8,286047010.0,N
1645153315.7,286047010.8,N
1645153335.5,286047005.5,N
1645153355.3,286047001.7,N
1645153375.2,286047007.5,N
1645153395.0,286047009.8,N
1645153395.9,286047009.8,N
1645153415.8,286047012.1,N
1645153435.6,286047009.3,N
1645153455.4,286047010.7,N
1645153475.3,286047011.0,N
1645153495.1,286047017.2,Y
1645153515.8,286047011.9,P
1645153535.7,286047013.9,P
1645153555.5,286047013.2,P
1645153575.4,286047011.7,Y
1645153595.2,286046996.7,P
1645153615.0,286046998.2,N
1645153615.9,286046998.2,N
1645153635.8,286046999.0,N
1645153655.6,286046997.0,N
1645153675.4,286046997.0,N
1645153695.3,286046997.9,N
1645153715.1,286046996.6,N
1645153735.9,286046997.5,N
1645153755.7,286046999.4,N
1645153775.5,286047002.5,N
1645153795.4,286046999.3,N
1645153815.2,286046994.1,N
1645153835.0,286046990.4,N
1645153836.0,286046990.4,N
1645153855.8,286046991.0,N
1645153875.6,286046986.9,N
1645153895.5,286046989.4,N
1645153915.3,286046985.3,N
1645153935.1,286046987.9,N
1645153955.9,286046985.1,N
1645153975.7,286046982.0,N
1645153995.6,286046979.1,Y
1645154015.4,286046984.3,P
1645154035.2,286046986.2,N
1645154055.1,286046986.3,P
1645154056.0,286046986.3,Y
1645154075.8,286046999.8,P
1645154095.6,286046998.5,N
1645154115.5,286046998.1,N
1645154135.3,286047004.3,N
1645154155.2,286047001.1,N
1645154175.9,286047001.8,N
1645154195.7,286047001.0,N
1645154215.6,286047000.4,N
1645154235.4,286047005.9,N
1645154255.2,286047005.6,N
1645154275.1,286047001.6,N
1645154276.0,286047001.6,N
1645154295.8,286047002.1,N
1645154315.7,286047001.7,N
1645154335.5,286047001.4,N
1645154355.3,286046998.1,N
1645154375.2,286047002.8,N
1645154395.0,286046996.9,N
1645154395.9,286046996.9,N
1645154415.7,286046997.0,N
1645154435.6,286046995.6,N
1645154455.4,286046997.8,N
1645154475.3,286047002.8,N
1645154495.1,286046999.5,N
1645154496.0,286046999.5,N
1645154515.8,286046996.6,N
1645154535.7,286046998.2,N
1645154555.5,286047002.4,N
1645154575.3,286047003.9,N
1645154595.2,286047001.6,N
1645154615.0,286047003.8,N
1645154615.9,286047003.8,N
1645154635.8,286047002.9,N
1645154655.6,286047005.1,N
1645154675.4,286047000.5,N
1645154695.3,286047003.1,N
1645154715.1,286047009.1,Y
1645154735.9,286047007.0,P
1645154755.7,286047004.5,N
1645154775.5,286047005.8,N
1645154795.4,286047001.8,N
1645154815.2,286047003.6,N
1645154835.0,286046999.7,N
1645154836.0,286046999.7,N
1645154855.8,286047002.6,N
1645154875.6,286047005.1,N
1645154895.5,286047005.8,N
1645154915.3,286047004.7,N
1645154935.1,286047000.0,N
1645154955.9,286047003.8,N
1645154975.7,286047002.6,N
1645154995.5,286047000.2,N
1645155015.4,286047004.4,N
1645155035.2,286047000.6,N
1645155055.1,286047004.1,N
1645155056.0,286047004.1,N
1645155075.8,286047006.7,Y
1645155095.6,286047005.8,P
1645155115.5,286047004.2,P
1645155135.3,286047001.4,N
1645155155.2,286046996.8,N
1645155175.9,286046997.9,N
1645155195.7,286046995.0,N
1645155215.6,286046995.7,N
1645155235.4,286046996.3,N
1645155255.2,286046996.3,N
1645155275.1,286046995.3,N
1645155276.0,286046995.3,N
1645155295.8,286046995.4,N
1645155315.7,286047001.9,N
1645155335.5,286047003.6,N
1645155355.3,286046999.9,N
1645155375.2,286047002.5,N
1645155395.9,286046997.5,N
1645155415.7,286046997.1,N
1645155435.6,286046998.0,N
1645155455.4,286046996.0,N
1645155475.3,286046998.9,N
1645155495.1,286046997.8,N
1645155496.0,286046997.8,N
1645155515.8,286046997.4,N
1645155535.7,286046999.0,N
1645155555.5,286046995.4,N
1645155575.3,286046993.9,N
1645155595.2,286046991.8,N
1645155615.0,286046995.4,N
1645155615.9,286046995.4,N
1645155635.8,286046990.5,N
1645155655.6,286046994.3,N
1645155675.4,286046991.8,N
1645155695.3,286046992.5,N
1645155715.1,286046996.8,N
1645155735.8,286046995.0,N
1645155755.7,286046995.3,N
1645155775.5,286046996.5,N
1645155795.4,286047000.4,N
1645155815.2,286047000.9,N
1645155835.0,286047001.2,N
1645155835.9,286047001.2,N
1645155855.8,286046996.8,N
1645155875.6,286046995.0,N
1645155895.4,286046992.5,N
1645155915.3,286046989.8,Y
1645155935.1,286046988.5,P
1645155955.9,286046990.0,N
1645155975.7,286046988.5,P
1645155995.5,286046991.1,N
1645156015.4,286046987.9,Y
1645156035.2,286046997.6,P
1645156085.1,286047002.6,E
1645156095.9,286047001.7,N
1645156115.7,286047005.8,P
1645156135.6,286047005.5,N
1645156155.4,286047003.4,N
1645156175.2,286047007.1,Y
1645156195.1,286046998.9,P
1645156196.0,286046998.9,N
1645156215.8,286047001.0,N
1645156235.7,286047002.5,N
1645156255.5,286047001.7,N
1645156275.3,286047000.8,N
1645156295.2,286046995.9,N
1645156315.0,286046997.8,N
1645156315.9,286046997.8,N
1645156335.7,286046993.7,N
1645156355.6,286046999.0,N
1645156375.4,286047003.6,N
1645156395.3,286047001.3,N
1645156415.1,286047001.7,N
1645156416.0,286047001.7,N
1645156435.8,286047000.9,N
1645156455.7,286046997.3,N
1645156475.5,286046998.5,N
1645156495.3,286047002.2,N
1645156515.2,286047001.4,N
1645156535.0,286046998.6,N
1645156535.9,286046998.6,N
1645156555.8,286047000.7,N
1645156575.6,286047002.8,N
1645156595.4,286046999.8,N
1645156615.3,286047004.4,N
1645156635.1,286047002.1,N
1645156655.9,286047000.2,N
1645156675.7,286047000.6,N
1645156695.5,286046998.4,N
1645156715.4,286046998.6,N
1645156735.2,286047000.0,N
1645156755.0,286047000.5,N
1645156755.9,286047000.5,N
1645156775.8,286047000.2,N
1645156795.6,286047000.8,N
